Regional Weather Roundup
Issued by NWS Wakefield, VA

Home | Current Version | Previous Version | Text Only | Print | Product List | Glossary Off
Versions: 1 2 3 4 5 6 7 8 9 10 11 12 13 14 15 16 17 18 19 20 21 22 23 24 25 26 27 28 29 30 31 32 33 34 35 36 37 38 39 40 41 42 43 44 45 46 47 48 49 50

000
ASUS41 KAKQ 291615
RWRAKQ

REGIONAL WEATHER ROUNDUP
NATIONAL WEATHER SERVICE WAKEFIELD VA
1200 PM EDT FRI MAY 29 2015

Note: "fair" indicates few or no clouds below 12,000 feet with no
significant weather and/or obstructions to visibility. * = Denotes
station may not report precipitation (e.g., rain,snow,etc.),
thunder or fog.

VAZ042-051-052>054-056-291700-
NORTHERN VIRGINIA

CITY           SKY/WX    TMP DP  RH WIND       PRES   REMARKS
WASH NATIONAL  CLOUDY    77  67  71 CALM      30.27F
DULLES         PTSUNNY   77  66  69 VRB3      30.26F
FORT BELVOIR   CLOUDY    76  69  78 SE3       30.27S
QUANTICO       PTSUNNY   77  69  76 E5        30.27S
FREDERICKSBRG* MOSUNNY   82  74  77 N5        30.24F
STAFFORD*      CLOUDY    78  69  73 E5        30.30S HAZE
WARRENTON      CLOUDY    78  72  84 NE3       30.26F
CULPEPER*      CLOUDY    75  70  84 CALM      30.27F
MANASSAS*      CLOUDY    75  70  83 SE6       30.27S
LEESBURG*      MOSUNNY   81  68  65 E6        30.28S
WINCHESTER     PTSUNNY   79  57  47 CALM      30.28S
FRONT ROYAL*   FAIR      75  68  78 E3        30.27F
LURAY*         PTSUNNY   81  70  69 N8        30.26F
$$

VAZ048-049-060>072-079>083-291700-
CENTRAL AND SOUTH CENTRAL VIRGINIA

CITY           SKY/WX    TMP DP  RH WIND       PRES   REMARKS
RICHMOND       PTSUNNY   85  69  58 SE7       30.24F
CHESTERFIELD*  NOT AVBL
PETERSBURG*    PTSUNNY   83  74  73 SE3       30.25F
HANOVER        MOSUNNY   82  69  64 S6        30.26S
TAPPAHANNOCK*  PTSUNNY   83  65  55 NE6       30.26S
QUINTON*       PTSUNNY   81  69  66 CALM      30.24F
CHARLOTTSVILLE PTSUNNY   79  68  69 NE5       30.27S
GORDONSVILLE*  PTSUNNY   78  71  78 NE5       30.26S
ORANGE*        CLOUDY    79  72  78 CALM      30.28S
LOUISA*        CLOUDY    81  72  74 W5        30.24F
BUMPASS*       FAIR      83  70  65 SE5       30.25S
FARMVILLE*     PTSUNNY   82  69  65 CALM      30.23F
CREWE*         PTSUNNY   82  69  64 E3        30.24F
FORT PICKETT*  PTSUNNY   80  70  72 S9        30.25S
CHASE CITY*    PTSUNNY   84  71  65 SE6       30.25S
CLARKSVILLE*   PTSUNNY   81  68  65 CALM      30.25S
SOUTH HILL*    CLOUDY    80  68  67 CALM      30.31S
LAWRENCEVILLE* FAIR      81  70  69 S5        30.25S
EMPORIA*       SUNNY     81  64  57 SE6       30.27S
$$

VAZ088>098-291700-
SOUTHEAST VIRGINIA

CITY           SKY/WX    TMP DP  RH WIND       PRES   REMARKS
NORFOLK        MOSUNNY   79  66  64 NE10      30.25F
VIRGINIA BEACH MOSUNNY   81  65  58 SE12      30.26S
NORFOLK NAVAL  MOSUNNY   85  65  51 N10       30.27S
WEST POINT*    SUNNY     85  64  48 SE5       30.26F
SALUDA*        PTSUNNY   80  70  71 E6        30.25S
NEWPORT NEWS   MOSUNNY   86  66  51 CALM      30.26S
LANGLEY AFB    SUNNY     82  64  54 S5        30.25S
FORT EUSTIS    SUNNY     80  66  62 S5        30.24S
WILLIAMSBURG*  SUNNY     84  72  65 SE7       30.26S
HR EXEC AP*    FAIR      82  64  54 E7        30.27F
FRANKLIN*      PTSUNNY   83  65  54 E6        30.26S
WAKEFIELD      MOSUNNY   82  66  58 CALM      30.25F
$$

VAZ020-022-025-037-045-291700-
WEST CENTRAL AND SOUTHWEST VIRGINIA

CITY           SKY/WX    TMP DP  RH WIND       PRES   REMARKS
STAUNTON*      PTSUNNY   80  67  64 CALM      30.30S
WAYNESBORO*    PTSUNNY   77  67  70 SE12      30.29S
HOT SPRINGS VA PTSUNNY   69  63  82 SE7       30.37S
LYNCHBURG      PTSUNNY   80  65  59 CALM      30.27F
DANVILLE       MOSUNNY   83  68  60 SW7       30.25F
SOUTH BOSTON*  FAIR      82  68  62 CALM      30.25S
MARTINSVILLE   CLOUDY    81  67  61 CALM      30.29S
ROANOKE        MOSUNNY   80  65  59 VRB7      30.29S
BLACKSBURG     PTSUNNY   77  65  67 CALM      30.33F
DUBLIN*        PTSUNNY   79  65  63 CALM      30.31F
MARION*        PTSUNNY   79  61  55 S3        30.33F
HILLSVILLE*      N/A     72  64  75 S3        30.33
RICHLANDS*     FAIR      76  63  64 CALM      30.31S
WISE*          CLOUDY    72  61  68 SW6       30.33R
ABINGDON*      MOSUNNY   81  61  50 SW5       30.28S
$$

MDZ021>025-VAZ099-100-291700-
SOUTHERN MARYLAND AND THE DELMARVA PENINSULA

CITY           SKY/WX    TMP DP  RH WIND       PRES   REMARKS
PATUXENT RIVER MOSUNNY   79  67  66 SE8       30.26S
BAY BRIDGE APT   N/A    N/A N/A N/A E6        30.27F
LEONARDTOWN    SUNNY     79  68  69 NE6       30.27S
DOVER          MOSUNNY   73  63  70 E8        30.26S
GEORGETOWN     SUNNY     80  65  59 NE9       30.27F
EASTON         MOSUNNY   79  68  69 SE6       30.30F
CAMBRIDGE      MOSUNNY   79  68  69 CALM      30.25F
SALISBURY      MOSUNNY   82  68  62 SE7       30.25F
OCEAN CITY     SUNNY     73  65  75 S7        30.27S
WALLOPS ISLAND SUNNY     78  69  73 SE10      30.27S
ACCOMACK*      CLOUDY    81  70  69 SE3       30.25F
$$

NCZ012>017-030>032-291700-
NORTH CENTRAL AND EASTERN NORTH CAROLINA

CITY           SKY/WX    TMP DP  RH WIND       PRES   REMARKS
ROANOKE RAPIDS PTSUNNY   81  66  61 E3        30.25F
RALEIGH        MOSUNNY   82  67  60 CALM      30.26S
ELIZABETH CITY SUNNY     81  65  58 E9        30.27R
AHOSKIE*       SUNNY     80  64  58 NW3       30.26S
EDENTON*         N/A     80  64  57 CALM      30.26S
CURRITUCK*     SUNNY     78  64  61 E6        30.28S
KILL DEVIL HLS SUNNY     77  66  68 E6        30.27S
MANTEO         SUNNY     77  67  71 NE10      30.27S
CAPE HATTERAS  MOSUNNY   83  66  56 SE10      30.26S
TARBORO*       FAIR      82  64  54 SE5       30.26S
GOLDSBORO      SUNNY     82  59  44 VRB1      30.22F
WASHINGTON     SUNNY     80  61  52 S6        30.26S
GREENVILLE     SUNNY     82  59  44 E6        30.26S
NEW BERN       MOSUNNY   83  63  50 SE7       30.26S
WILMINGTON     SUNNY     81  65  58 SE8       30.24S
$$

VAZ048-291700-
ELSEWHERE

CITY           SKY/WX    TMP DP  RH WIND       PRES   REMARKS
HARRISBURG PA  SUNNY     79  59  50 S3        30.27F
BALTIMORE      PTSUNNY   75  61  61 E5        30.27F
ANNAPOLIS      CLOUDY    73  62  68 NE3       30.27F
ANDREWS AFB    CLOUDY    73  68  83 VRB6      30.27S
PHILADELPHIA   MOSUNNY   81  58  45 E6        30.28F
HENDERSON NC   PTSUNNY   80  63  55 CALM      30.26F HAZE
GREENSBORO     PTSUNNY   79  65  62 CALM      30.26S
ROCKY MOUNT    SUNNY     82  64  54 NE6       30.26S
$$

VAZ100-291700-
MARINE

STATION/POSITION TIME  TEMP    WIND        PRES    WAVE   SWELL
                       AIR SEA DIR/SP/G            HT/PER HT/PER
                 (UTC) (F)     (DEG/KT/KT) (MB)    (FT/S) (FT/S)
BRANDYWINE LGT   1500   69 66   80/ 11/ 13 1025.6R
CAPE MAY NJ      1500   70 70   70/ 11/ 15 1025.1R
LEWES DE         1500   65 65   80/ 12/ 14 1025.4R
15NM E FENWICK I 1550   67 66              1025.2R   3/ 9
OCEAN-CITY-INLET 1500   70 60  130/  5/  7 1025.0R
WACHAPREAGUE VA  1500   77 75  160/  5/  8 1024.9R
THOMAS POINT MD  1600   70 70   10/  7/  8 1025.6F
GOOSES REEF MD   1600   73 73   30/  6/  8 1025.7F   1/ 3
COVE POINT MD    1500   71     160/  2/  3 1025.5R
SOLOMONS ISLAND  1500      74                N/A
BISHOPS HEAD MD  1500   74 76  140/  5/  6 1024.6R
PINEY POINT MD   1500          180/  5/  5   N/A
CAMBRIDGE MD     1500   74 75   50/  6/  7 1024.8R
LEWISETTA VA     1500   74 73              1024.4R
RAPPAHANNOCK LGT 1500          180/  6/  7 1025.4R
STINGRAY PT      1600   74 75  150/  8/ 10 1024.8S   1
YORK RVR RNG VA  1500   76     150/  2/  2 1024.1R
YORKTOWN VA      1500   75 71   80/  6/  6 1024.4R
JAMESTOWN VA     1600   79 80  130/  2/  4 1023.4F
DOMINION TERM VA 1500   76     130/  1/  2 1024.9R
KIPTOPEKE VA     1500      76  170/  4/  5   N/A
CHES BAY BRIDGE  1500   72 72   60/  6/  6 1024.5R
CAPE HENRY VA    1500   72     100/  7/  8 1023.8R
CHESAPEAKE LGHT  1500   68     140/  9/  9 1026.0R
WILLOUBY STN VA  1500   74     300/  3/  4 1025.6R
CAPE HENRY BUOY  1528      71                N/A     2/ 9
1ST LANDING BUOY 1600      72              1024.6F
CAPE CHARLES BUO 1526      71                N/A     2/ 9   2/ 9
OFFSHORE WE BUOY 1511      68                N/A     3/ 8   3/ 8
64NM E OF VA BCH 1550   69 67   90/  4/  6 1025.1S   3/ 8   3/ 8
DUCK PIER NC     1500   72 60  100/  9/ 10 1024.3R
44100 DUCK FRF   1524      70                N/A     2/ 9
44056 DUCK FRF   1511      67                N/A     2/ 9
OREGON INLET NC  1500   74 78   50/  8/ 10 1025.0R
HATTERAS NC      1500   78 76   90/  7/ 10 1024.4R
DIAMOND SHLS NC  1550   77 77  100/  8/ 10 1024.5F   3/ 8   3/ 8
CAPE LOOKOUT NC  1600   75      60/ 10/ 10 1024.1F
$$


USA.gov is the U.S. government's official web portal to all federal, state and local government web resources and services.